When you browse on this site, cookies collect data to enhance your experience and personalize the content and advertising you see.
Visit our Privacy Policy to learn more. By continuing to use the site, you agree to this use of cookies and data.
  • en France
  • Liste des pays
  • À 7 jours
  • Température de l'eau
  • Carte météo
  • Widgets météo
  • user-avatar
    Se connecter

    Météo par heure à Newcastle

    Ce jour, 3 Avril, Vendredi

    Heure Température Précipitation Vent Pression Humidité
    00:00 0°C° 0 mm 8 m/s 753 mmHg 93%
    01:00 0°C° 0 mm 8 m/s 753 mmHg 92%
    02:00 0°C° 0 mm 7 m/s 753 mmHg 93%
    03:00 -1°C° 0 mm 7 m/s 753 mmHg 93%
    04:00 -1°C° 0 mm 8 m/s 754 mmHg 92%
    05:00 -1°C° 0 mm 8 m/s 754 mmHg 92%
    06:00 -1°C° 0 mm 7 m/s 754 mmHg 91%
    07:00 -1°C° 0 mm 7 m/s 755 mmHg 90%
    08:00 -1°C° 0 mm 8 m/s 756 mmHg 88%
    09:00 -1°C° 0 mm 7 m/s 757 mmHg 89%
    10:00 -1°C° 0 mm 7 m/s 757 mmHg 90%
    11:00 -1°C° 0 mm 7 m/s 757 mmHg 90%
    12:00 -1°C° 0 mm 7 m/s 758 mmHg 90%
    13:00 -2°C° 0 mm 7 m/s 758 mmHg 90%
    14:00 -2°C° 0 mm 6 m/s 758 mmHg 90%
    15:00 -2°C° 0 mm 6 m/s 758 mmHg 91%
    16:00 -2°C° 0 mm 6 m/s 758 mmHg 91%
    17:00 -3°C° 0 mm 6 m/s 758 mmHg 92%
    18:00 -3°C° 0.1 mm 6 m/s 759 mmHg 92%
    19:00 -2°C° 0.1 mm 5 m/s 759 mmHg 92%
    20:00 -4°C° 0.1 mm 5 m/s 760 mmHg 93%
    21:00 -4°C° 0 mm 5 m/s 760 mmHg 93%
    22:00 -4°C° 0 mm 5 m/s 760 mmHg 93%
    23:00 -3°C° 0 mm 4 m/s 760 mmHg 93%

    Demain, 4 Avril, Samedi

    Heure Température Précipitation Vent Pression Humidité
    00:00 -3°C° 0 mm 4 m/s 760 mmHg 93%
    01:00 -3°C° 0 mm 4 m/s 759 mmHg 93%
    02:00 -3°C° 0 mm 4 m/s 759 mmHg 93%
    03:00 -2°C° 0.1 mm 3 m/s 759 mmHg 94%
    04:00 -2°C° 0.1 mm 3 m/s 759 mmHg 94%
    05:00 -2°C° 0.1 mm 3 m/s 759 mmHg 95%
    06:00 -2°C° 0.1 mm 3 m/s 759 mmHg 94%
    07:00 -2°C° 0.1 mm 3 m/s 759 mmHg 93%
    08:00 -2°C° 0.1 mm 3 m/s 759 mmHg 93%
    09:00 -1°C° 0.1 mm 3 m/s 759 mmHg 91%
    10:00 -1°C° 0.1 mm 3 m/s 759 mmHg 89%
    11:00 0°C° 0.1 mm 3 m/s 759 mmHg 88%
    12:00 0°C° 0 mm 3 m/s 759 mmHg 87%
    13:00 0°C° 0 mm 3 m/s 758 mmHg 85%
    14:00 0°C° 0 mm 3 m/s 758 mmHg 84%
    15:00 +1°C° 0 mm 2 m/s 758 mmHg 84%
    16:00 +1°C° 0 mm 2 m/s 757 mmHg 85%
    17:00 -1°C° 0 mm 2 m/s 757 mmHg 85%
    18:00 -2°C° 0 mm 2 m/s 757 mmHg 88%
    19:00 0°C° 0 mm 1 m/s 758 mmHg 91%
    20:00 -1°C° 0 mm 1 m/s 758 mmHg 94%
    21:00 -2°C° 0 mm 1 m/s 758 mmHg 94%
    22:00 -3°C° 0 mm 1 m/s 758 mmHg 95%
    23:00 -4°C° 0 mm 0 m/s 758 mmHg 95%

    Après-demain, 5 Avril, Dimanche

    Heure Température Précipitation Vent Pression Humidité
    00:00 -4°C° 0 mm 0 m/s 757 mmHg 94%
    01:00 -4°C° 0 mm 0 m/s 757 mmHg 94%
    02:00 -4°C° 0 mm 0 m/s 757 mmHg 93%
    03:00 -4°C° 0 mm 0 m/s 757 mmHg 92%
    04:00 -4°C° 0 mm 0 m/s 757 mmHg 92%
    05:00 -4°C° 0 mm 0 m/s 757 mmHg 92%
    06:00 -3°C° 0 mm 0 m/s 757 mmHg 88%
    07:00 -2°C° 0 mm 0 m/s 758 mmHg 84%
    08:00 0°C° 0 mm 0 m/s 758 mmHg 80%
    09:00 +1°C° 0 mm 0 m/s 757 mmHg 78%
    10:00 +3°C° 0 mm 0 m/s 757 mmHg 75%
    11:00 +6°C° 0 mm 1 m/s 757 mmHg 73%
    12:00 +6°C° 0 mm 1 m/s 757 mmHg 73%
    13:00 +5°C° 0 mm 1 m/s 756 mmHg 74%
    14:00 +5°C° 0 mm 1 m/s 756 mmHg 74%
    15:00 +5°C° 0 mm 1 m/s 756 mmHg 76%
    16:00 +5°C° 0 mm 1 m/s 756 mmHg 79%
    17:00 +3°C° 0 mm 2 m/s 755 mmHg 81%
    18:00 +2°C° 0 mm 2 m/s 755 mmHg 85%
    19:00 +2°C° 0 mm 1 m/s 755 mmHg 88%
    20:00 0°C° 0 mm 1 m/s 755 mmHg 92%
    21:00 -2°C° 0 mm 2 m/s 755 mmHg 91%
    22:00 -2°C° 0 mm 2 m/s 754 mmHg 90%
    23:00 -2°C° 0 mm 2 m/s 754 mmHg 89%

    6 Avril, Lundi

    Heure Température Précipitation Vent Pression Humidité
    00:00 -2°C° 0.1 mm 2 m/s 753 mmHg 90%
    01:00 -2°C° 0.1 mm 2 m/s 752 mmHg 91%
    02:00 -1°C° 0.1 mm 2 m/s 752 mmHg 92%
    03:00 -1°C° 0.3 mm 2 m/s 751 mmHg 93%
    04:00 0°C° 0.3 mm 3 m/s 751 mmHg 95%
    05:00 0°C° 0.3 mm 3 m/s 751 mmHg 97%
    06:00 +1°C° 0 mm 3 m/s 750 mmHg 92%
    07:00 0°C° 0 mm 4 m/s 750 mmHg 86%
    08:00 +1°C° 0 mm 4 m/s 750 mmHg 81%
    09:00 +1°C° 0 mm 4 m/s 750 mmHg 77%
    10:00 +2°C° 0 mm 5 m/s 750 mmHg 74%
    11:00 +2°C° 0 mm 5 m/s 750 mmHg 70%
    12:00 +2°C° 0 mm 5 m/s 750 mmHg 69%
    13:00 +2°C° 0 mm 5 m/s 750 mmHg 68%
    14:00 +3°C° 0 mm 6 m/s 750 mmHg 68%
    15:00 +2°C° 0 mm 5 m/s 750 mmHg 70%
    16:00 +2°C° 0 mm 5 m/s 751 mmHg 71%
    17:00 +2°C° 0 mm 5 m/s 751 mmHg 73%
    18:00 +1°C° 0 mm 4 m/s 752 mmHg 81%
    19:00 0°C° 0 mm 3 m/s 752 mmHg 88%
    20:00 -1°C° 0 mm 2 m/s 753 mmHg 95%
    21:00 -2°C° 0 mm 2 m/s 753 mmHg 95%
    22:00 0°C° 0 mm 1 m/s 754 mmHg 95%
    23:00 -1°C° 0 mm 1 m/s 754 mmHg 96%

    7 Avril, Mardi

    Heure Température Précipitation Vent Pression Humidité
    00:00 -1°C° 0 mm 1 m/s 754 mmHg 95%
    01:00 -1°C° 0 mm 1 m/s 754 mmHg 95%
    02:00 -2°C° 0 mm 1 m/s 754 mmHg 94%
    03:00 -1°C° 0 mm 1 m/s 755 mmHg 94%
    04:00 -2°C° 0 mm 0 m/s 755 mmHg 93%
    05:00 -2°C° 0 mm 0 m/s 755 mmHg 93%
    06:00 -2°C° 0.1 mm 0 m/s 755 mmHg 90%
    07:00 0°C° 0.1 mm 1 m/s 755 mmHg 88%
    08:00 0°C° 0.1 mm 1 m/s 755 mmHg 86%
    09:00 +1°C° 0.1 mm 1 m/s 755 mmHg 82%
    10:00 +3°C° 0.1 mm 1 m/s 755 mmHg 77%
    11:00 +4°C° 0.1 mm 1 m/s 755 mmHg 73%
    12:00 +3°C° 0.1 mm 2 m/s 755 mmHg 71%
    13:00 +4°C° 0.1 mm 2 m/s 755 mmHg 69%
    14:00 +4°C° 0.1 mm 2 m/s 755 mmHg 67%
    15:00 +4°C° 0 mm 2 m/s 755 mmHg 68%
    16:00 +3°C° 0 mm 2 m/s 755 mmHg 69%
    17:00 +3°C° 0 mm 2 m/s 755 mmHg 70%
    18:00 +1°C° 0 mm 2 m/s 755 mmHg 75%
    19:00 -2°C° 0 mm 2 m/s 755 mmHg 79%
    20:00 -1°C° 0 mm 1 m/s 756 mmHg 84%
    21:00 -1°C° 0 mm 1 m/s 756 mmHg 83%
    22:00 -1°C° 0 mm 1 m/s 756 mmHg 82%
    23:00 -2°C° 0 mm 0 m/s 756 mmHg 81%

    8 Avril, Mercredi

    Heure Température Précipitation Vent Pression Humidité
    00:00 -2°C° 0 mm 0 m/s 756 mmHg 82%
    01:00 -2°C° 0 mm 1 m/s 755 mmHg 83%
    02:00 -2°C° 0 mm 1 m/s 755 mmHg 85%
    03:00 -2°C° 0 mm 1 m/s 755 mmHg 87%
    04:00 -2°C° 0 mm 1 m/s 755 mmHg 89%
    05:00 -2°C° 0 mm 1 m/s 755 mmHg 91%
    06:00 -1°C° 0 mm 1 m/s 755 mmHg 85%
    07:00 +1°C° 0 mm 1 m/s 755 mmHg 80%
    08:00 +2°C° 0 mm 1 m/s 755 mmHg 74%
    09:00 +4°C° 0 mm 1 m/s 755 mmHg 65%
    10:00 +6°C° 0 mm 1 m/s 754 mmHg 57%
    11:00 +8°C° 0 mm 1 m/s 754 mmHg 48%
    12:00 +8°C° 0 mm 1 m/s 754 mmHg 48%
    13:00 +7°C° 0 mm 0 m/s 753 mmHg 48%
    14:00 +8°C° 0 mm 0 m/s 753 mmHg 48%
    15:00 +7°C° 0 mm 0 m/s 753 mmHg 52%
    16:00 +7°C° 0 mm 1 m/s 752 mmHg 56%
    17:00 +7°C° 0 mm 1 m/s 752 mmHg 59%
    18:00 +5°C° 0 mm 1 m/s 752 mmHg 68%
    19:00 +1°C° 0 mm 2 m/s 753 mmHg 77%
    20:00 -2°C° 0 mm 2 m/s 753 mmHg 86%
    21:00 -2°C° 0 mm 2 m/s 753 mmHg 87%
    22:00 0°C° 0 mm 1 m/s 753 mmHg 88%
    23:00 0°C° 0 mm 1 m/s 753 mmHg 90%
    Voir plus